Location: Newark
(52.1031°N, 9.3600°E)
Time: 06:30:41
(UTC+00:00)

nSIGHT-1 - Pass Details

Date: 21 December 2019
Orbit: 313 x 315 km, 51.6° (Epoch: 27 January)

Event Time Altitude Azimuth Distance (km) Brightness Sun altitude
Exits shadow 04:41:45 20° 98° (E) 819 ? -24.1°
Drops below altitude 10° 04:42:43 10° 97° (E) 1,216 ? -24.0°
Sets 04:44:41 0° 96° (E) 2,042 ? -23.7°
